Starlink 4732

operational
NORAD ID: 53870 Int'l Des: 2022-114 Owner: SPXS Country: US Constellation: starlink
LEOCIRCULAR

About Starlink 4732

Description loading...

Live Position

Loading 3D Globe...

Upcoming Passes

Altitude History

Altitude vs Time

uPlot chart will show altitude changes over time

Two-Line Element Set

1 53870U 22114BE 25259.48074764 .00000559 00000-0 53239-4 0 9991
2 53870 53.2176 326.1094 0001357 85.6928 274.4219 15.08837504167091
Epoch: Sep 16, 2025 • Age: 10 hours

Current Status

Altitude 540.1 km
Velocity 7.60 km/s
Sub-Earth Point 23.85°N, 29.28°E
Launch Date Sep 19, 2022
Age 2.9 years
Type internet

Technical Details

Classification Payload
Mass 305.00 kg
Dry Mass 290.00 kg
Total Mass 305.00 kg
Length 0.20 m
Diameter 2.80 m
Span 9.00 m
Shape Box + pan
Manufacturer SPXS
Bus Type Starlink
Phase Status In Orbit
Owner/State SPXS/US

Large Constellations

Loading constellations...